Meteo Giornale » Osservazioni meteo Gran Bretagna » Farnborough

ore: 17:50 - Osservazioni Meteo Farnborough
Lat. 51° 17' N Lon. 0° 46' W Alt. 65 metri s.l.m.

molto_nuvoloso Europe/London

10 °C

Molto Nuvoloso

Temp. 24 Ore

2 °C

10 °C

Est/Nord-Est

20.3 Km/h

Dew point -1 °C

Umidità 46 %

Visibilità  10 Km

Il sole sorge alle ore 06:36

Il sole tramonta alle ore 19:37

Data e Ora Cielo e Fenomeni T °C DP °C Um. % Pres. hPa Vis. km Vento km/h
Oggi h: 17:50 molto_nuvoloso Molto Nuvoloso 10 -1 46 1029 10 E/NE 20.3
Oggi h: 17:20 molto_nuvoloso Molto Nuvoloso 10 -1 46 1029 10 E/NE 20.3
Oggi h: 16:50 molto_nuvoloso Molto Nuvoloso 9 -1 49 1030 10 NE 20.3
Oggi h: 16:20 molto_nuvoloso Molto Nuvoloso 9 -1 49 1030 10 E/NE 22.2
Oggi h: 15:50 molto_nuvoloso Molto Nuvoloso 9 -1 49 1030 10 NE 20.3
Oggi h: 15:20 molto_nuvoloso Molto Nuvoloso 9 -1 49 1030 10 E/NE 20.3
Oggi h: 14:50 molto_nuvoloso Molto Nuvoloso 10 0 49 1030 10 E 22.2
Oggi h: 14:20 coperto Coperto 9 0 53 1031 10 NE 24
Oggi h: 13:50 molto_nuvoloso Molto Nuvoloso 9 0 53 1031 10 NE 20.3
Oggi h: 13:20 nuvoloso Nuvoloso 8 0 56 1031 10 NE 22.2
Oggi h: 12:50 nuvoloso Nuvoloso 8 0 56 1031 10 NE 22.2
Oggi h: 12:20 nuvoloso Nuvoloso 8 1 61 1031 10 NE 20.3
Oggi h: 11:50 molto_nuvoloso Molto Nuvoloso 8 1 61 1032 10 NE 22.2
Oggi h: 11:20 nuvoloso Nuvoloso 7 0 60 1032 10 NE 24
Oggi h: 10:50 nuvoloso Nuvoloso 8 2 65 1032 10 NE 22.2
Oggi h: 10:20 molto_nuvoloso Molto Nuvoloso 7 2 70 1032 10 NE 20.3
Oggi h: 09:50 nuvoloso Nuvoloso 6 2 75 1032 10 NE 22.2
Oggi h: 09:20 nuvoloso Nuvoloso 6 2 75 1032 10 NE 22.2
Oggi h: 08:50 nuvoloso Nuvoloso 4 1 80 1032 10 NE 18.5
Oggi h: 08:20 nuvoloso Nuvoloso 4 1 80 1032 10 NE 13
Oggi h: 07:20 sereno Sereno 2 0 86 1032 10 N 9.3
Oggi h: 06:50 poco_nuvoloso Poco Nuvoloso 2 0 86 1031 10 N 9.3
Oggi h: 06:20 sereno Sereno 2 0 86 1031 10 N/NE 13
Oggi h: 05:50 sereno Sereno 2 0 86 1031 10 N 11.1
Oggi h: 04:50 sereno Sereno 2 0 86 1031 10 N 9.3
Oggi h: 04:20 sereno Sereno 2 0 86 1031 10 N 7.4
Oggi h: 03:50 sereno Sereno 3 0 80 1031 10 N/NE 9.3
Oggi h: 03:20 sereno Sereno 3 1 86 1031 10 N/NE 14.8
Oggi h: 02:50 sereno Sereno 3 1 86 1031 10 N/NE 13
Oggi h: 02:20 poco_nuvoloso Poco Nuvoloso 4 2 86 1031 10 N/NE 14.8
Oggi h: 01:50 nuvoloso Nuvoloso 4 2 86 1031 10 N/NE 16.7
Oggi h: 01:20 nuvoloso Nuvoloso 4 2 86 1031 10 N/NE 14.8
Oggi h: 00:50 nuvoloso Nuvoloso 5 2 80 1031 10 N/NE 16.7
Ieri h: 23:50 poco_nuvoloso Poco Nuvoloso 5 2 80 1032 10 N/NE 16.7
Ieri h: 23:20 molto_nuvoloso Molto Nuvoloso 5 2 80 1032 10 N/NE 24
Ieri h: 22:50 molto_nuvoloso Molto Nuvoloso 5 3 86 1032 10 N/NE 18.5
Ieri h: 22:20 coperto_pioggia Pioggia Debole 6 3 81 1031 10 N 16.7
Ieri h: 21:50 molto_nuvoloso Molto Nuvoloso 6 2 75 1031 10 N 16.7
Ieri h: 21:20 nuvoloso Nuvoloso 6 3 81 1031 10 N 18.5
Ieri h: 20:50 poco_nuvoloso Poco Nuvoloso 7 2 70 1031 10 N 20.3
Ieri h: 20:20 molto_nuvoloso Molto Nuvoloso 7 2 70 1031 10 N/NE 20.3
Ieri h: 19:50 poco_nuvoloso Poco Nuvoloso 7 1 65 1031 10 N/NE 20.3
Ieri h: 19:20 sereno Sereno 8 0 56 1031 10 N/NE 20.3
Ieri h: 18:50 sereno Sereno 8 1 61 1031 10 NE 18.5